Regional Weather Roundup
Issued by NWS

Home | Current Version | Previous Version | Graphics & Text | Print | Product List | Glossary On
Versions: 1 2 3 4 5 6 7 8 9 10 11 12 13 14 15 16 17 18 19 20 21 22 23 24 25 26 27
000
ASUS45 KCYS 060510
RWRWY

WYOMING REGIONAL WEATHER ROUNDUP
NATIONAL WEATHER SERVICE CHEYENNE WY
1000 PM MST MON DEC 05 2016

NOTE:  "FAIR" INDICATES FEW OR NO CLOUDS BELOW 12,000 FEET
WITH NO SIGNIFICANT WEATHER AND/OR OBSTRUCTIONS TO VISIBILITY.

WYZ001-060600-
YELLOWSTONE NATIONAL PARK

CITY           SKY/WX    TMP DP  RH WIND       PRES   REMARKS
LK YELLOWSTONE   N/A     -5  -8  87 W5        29.83S WCI -16
W YELLOWSTONE  NOT AVBL

$$
WYZ002>013-054>058-071-098>099-060600-
NORTHERN WYOMING

CITY           SKY/WX    TMP DP  RH WIND       PRES   REMARKS
JACKSON        FAIR       0  -2  92 SE5       29.92S WCI -10
CODY           FAIR       0  -5  79 NW5       29.92F WCI -10
GREYBULL       FAIR      15   7  70 W5        29.99S WCI   8
WORLAND        FAIR      13   8  81 SW8       29.98S WCI   2
SHERIDAN       FAIR       7   0  73 NW12      29.96S WCI  -8
BUFFALO        FAIR      11   0  61 S9        29.91S WCI  -2
GILLETTE       FAIR       3  -1  83 W13       29.92S WCI -14
HULETT         FAIR      10   1  67 SW6       29.92S WCI   1
NEWCASTLE      FAIR      12   5  73 N14       29.93S WCI  -3

$$
WYZ014>020-022>026-101>103-060600-
CENTRAL WYOMING

CITY           SKY/WX    TMP DP  RH WIND       PRES   REMARKS
BIG PINEY      FAIR     -10 -15  78 NW6       29.92F WCI -23
PINEDALE       FAIR     -13 -18  77 W12       29.93S WCI -33
DUBOIS         FAIR       0  -9  65 NW15      29.85S WCI -20
LANDER         FAIR       9  -6  50 CALM      29.93S
RIVERTON       FAIR       9   0  67 W6        29.93S WCI  -1
CASPER         FAIR      -1  -3  91 W7        29.93S WCI -14
DOUGLAS        CLOUDY     5   0  79 W10       29.95S WCI -10

$$
WYZ021-027>030-104>119-060600-
SOUTHERN WYOMING

CITY           SKY/WX    TMP DP  RH WIND       PRES   REMARKS
EVANSTON       FAIR       5 -14  41 E6        29.91F WCI  -6
KEMMERER         N/A     -2  -9  71 N3        29.92S
FORT BRIDGER   FAIR       2 -14  47 S9        29.95F WCI -13
ROCK SPRINGS   FAIR       6  -6  57 SW3       29.94S
DIXON          FAIR      -2  -9  71 NE5       29.99R WCI -12
RAWLINS        FAIR       8  -7  50 W15       29.89F WCI  -9
SARATOGA       FAIR       5  -8  56 SW10      29.90R WCI -10
LARAMIE        FAIR       5  -9  52 NW15      29.83F WCI -13
CHEYENNE       FAIR      14  -8  37 NW17G25   29.88S WCI  -3
TORRINGTON     FAIR      16   4  59 NW13      29.95R WCI   2
PINE BLUFFS    FAIR      14  10  85 NW16G23   29.89R WCI  -2

$$




USA.gov is the U.S. government's official web portal to all federal, state and local government web resources and services.